Beatrice, NE

4:37 AM CDT on July 27, 2017 (GMT -0500)
Beatrice Municipal

Weather History for KBIE - April, 2014

Change the Weather History Date:

Tuesday, April 8, 2014

  Actual Average Record
Temperature  
Mean Temperature 47 °F -  
Max Temperature 60 °F 64 °F 85 °F (1978)
Min Temperature 34 °F 41 °F 14 °F (2007)
Degree Days  
Heating Degree Days 18    
Moisture  
Dew Point 25 °F    
Average Humidity 48    
Maximum Humidity 87    
Minimum Humidity 16    
Precipitation  
Precipitation 0.00 in - - ()
Sea Level Pressure  
Sea Level Pressure 30.05 in    
Wind  
Wind Speed 12 mph (NNW)    
Max Wind Speed 23 mph    
Max Gust Speed 31 mph    
Visibility 10 miles    
Events      
Averages and records for this station are not official NWS values.
T = Trace of Precipitation, MM = Missing Value Source: NWS Daily Summary

Daily Weather History Graph

Daily Weather History Graph

Search for Another Location

Airport or City:

Trip Planner

Search our weather history database for the weather conditions in past years. The results will help you decide how hot, cold, wet, or windy it might be!

Date:

Astronomy

Apr. 08, 2014 Rise Set
Actual Time 6:59 AM CDT 7:58 PM CDT
Civil Twilight 6:31 AM CDT 8:26 PM CDT
Nautical Twilight 5:58 AM CDT 8:59 PM CDT
Astronomical Twilight 5:24 AM CDT 9:34 PM CDT
Moon 1:52 PM CDT (4/8) 3:13 AM CDT (4/8)
Length of Visible Light 13h 54m
Length of Day
12h 59m
Waxing Gibbous, 63% of the Moon is Illuminated
Apr 8
Waxing Gibbous
Apr 15
Full
Apr 22
Last Quarter
Apr 29
New
May 6
First Quarter

Hourly Weather History & Observations

Time (CDT) Temp. Windchill Dew Point Humidity Pressure Visibility Wind Dir Wind Speed Gust Speed Precip Events Conditions
12:15 AM 44.6 °F 38.4 °F 31.6 °F 60% 29.97 in 10.0 mi NW 12.7 mph - N/A   Clear
12:35 AM 45.5 °F 39.2 °F 32.0 °F 59% 29.97 in 10.0 mi NW 13.8 mph - N/A   Clear
1:15 AM 44.6 °F 38.1 °F 32.2 °F 62% 29.97 in 10.0 mi NNW 13.8 mph - N/A   Clear
1:35 AM 43.0 °F 37.2 °F 32.2 °F 66% 29.98 in 10.0 mi NNW 10.4 mph - N/A   Clear
1:55 AM 41.0 °F 35.8 °F 32.0 °F 70% 29.98 in 10.0 mi NW 8.1 mph - N/A   Scattered Clouds
2:15 AM 42.3 °F 36.3 °F 32.7 °F 69% 29.98 in 10.0 mi NW 10.4 mph - N/A   Mostly Cloudy
2:35 AM 43.2 °F 37.0 °F 33.1 °F 68% 29.98 in 10.0 mi NW 11.5 mph - N/A   Overcast
2:55 AM 42.3 °F 35.9 °F 32.9 °F 69% 29.97 in 10.0 mi NW 11.5 mph - N/A   Mostly Cloudy
3:15 AM 42.8 °F 37.0 °F 33.4 °F 70% 29.97 in 10.0 mi NW 10.4 mph - N/A   Mostly Cloudy
3:35 AM 41.2 °F 35.0 °F 32.9 °F 72% 29.97 in 10.0 mi NW 10.4 mph - N/A   Scattered Clouds
3:55 AM 40.1 °F 34.7 °F 32.4 °F 74% 29.97 in 10.0 mi NW 8.1 mph - N/A   Clear
4:15 AM 39.4 °F 32.7 °F 32.2 °F 75% 29.97 in 10.0 mi NW 10.4 mph - N/A   Clear
4:35 AM 38.7 °F 31.8 °F 32.0 °F 77% 29.98 in 10.0 mi NW 10.4 mph - N/A   Clear
4:55 AM 36.5 °F 30.3 °F 31.6 °F 83% 29.98 in 10.0 mi NW 8.1 mph - N/A   Clear
5:15 AM 35.6 °F 28.6 °F 31.5 °F 85% 29.99 in 10.0 mi NW 9.2 mph - N/A   Clear
5:35 AM 36.3 °F 28.4 °F 31.8 °F 84% 29.99 in 10.0 mi NW 11.5 mph - N/A   Clear
5:55 AM 36.3 °F 27.5 °F 32.0 °F 84% 30.00 in 10.0 mi NW 13.8 mph - N/A   Clear
6:15 AM 36.1 °F 27.7 °F 31.6 °F 84% 30.01 in 10.0 mi NW 12.7 mph - N/A   Clear
6:35 AM 35.1 °F 27.4 °F 31.1 °F 85% 30.02 in 10.0 mi NW 10.4 mph - N/A   Clear
6:55 AM 34.5 °F 26.7 °F 30.9 °F 87% 30.02 in 10.0 mi NW 10.4 mph - N/A   Clear
7:15 AM 34.2 °F 26.8 °F 30.6 °F 87% 30.03 in 10.0 mi NW 9.2 mph - N/A   Clear
7:35 AM 35.4 °F 27.8 °F 31.3 °F 85% 30.04 in 10.0 mi NW 10.4 mph - N/A   Clear
7:55 AM 37.6 °F 31.0 °F 32.0 °F 80% 30.05 in 10.0 mi NW 9.2 mph - N/A   Clear
8:15 AM 40.1 °F 32.7 °F 32.5 °F 74% 30.06 in 10.0 mi NNW 12.7 mph - N/A   Clear
8:35 AM 42.3 °F 34.4 °F 33.1 °F 70% 30.06 in 10.0 mi NNW 16.1 mph - N/A   Clear
8:55 AM 44.2 °F 36.7 °F 33.4 °F 66% 30.06 in 10.0 mi NNW 17.3 mph 23.0 mph N/A   Clear
9:15 AM 46.0 °F 38.5 °F 33.3 °F 61% 30.07 in 10.0 mi NNW 19.6 mph - N/A   Clear
9:35 AM 46.9 °F - 33.4 °F 59% 30.07 in 10.0 mi NNW 19.6 mph - N/A   Clear
9:55 AM 48.2 °F - 33.8 °F 58% 30.08 in 10.0 mi NNW 17.3 mph 25.3 mph N/A   Clear
10:15 AM 50.0 °F - 33.6 °F 53% 30.09 in 10.0 mi North 23.0 mph 26.5 mph N/A   Clear
10:35 AM 51.1 °F - 33.3 °F 51% 30.09 in 10.0 mi North 20.7 mph 25.3 mph N/A   Clear
10:55 AM 52.3 °F - 32.0 °F 46% 30.10 in 10.0 mi North 19.6 mph 29.9 mph N/A   Clear
11:15 AM 52.9 °F - 32.0 °F 45% 30.10 in 10.0 mi NNW 20.7 mph 24.2 mph N/A   Clear
11:35 AM 53.4 °F - 29.1 °F 39% 30.10 in 10.0 mi NNW 18.4 mph 28.8 mph N/A   Clear
11:55 AM 54.9 °F - 29.1 °F 37% 30.10 in 10.0 mi NNW 17.3 mph 26.5 mph N/A   Clear
12:15 PM 56.1 °F - 27.5 °F 33% 30.10 in 10.0 mi NW 19.6 mph 26.5 mph N/A   Clear
12:35 PM 56.3 °F - 26.1 °F 31% 30.10 in 10.0 mi North 20.7 mph 28.8 mph N/A   Clear
12:55 PM 56.7 °F - 24.6 °F 29% 30.10 in 10.0 mi North 21.9 mph 28.8 mph N/A   Clear
1:15 PM 57.7 °F - 22.1 °F 25% 30.09 in 10.0 mi North 17.3 mph 27.6 mph N/A   Clear
1:35 PM 58.6 °F - 21.2 °F 24% 30.09 in 10.0 mi North 21.9 mph 31.1 mph N/A   Clear
1:55 PM 58.5 °F - 20.8 °F 23% 30.09 in 10.0 mi North 18.4 mph 27.6 mph N/A   Clear
2:15 PM 58.3 °F - 20.7 °F 23% 30.09 in 10.0 mi North 16.1 mph 26.5 mph N/A   Clear
2:35 PM 59.2 °F - 18.9 °F 21% 30.08 in 10.0 mi North 19.6 mph 23.0 mph N/A   Clear
2:55 PM 60.6 °F - 17.4 °F 19% 30.08 in 10.0 mi North 17.3 mph 25.3 mph N/A   Clear
3:15 PM 60.1 °F - 14.7 °F 17% 30.08 in 10.0 mi North 20.7 mph 27.6 mph N/A   Clear
3:35 PM 59.0 °F - 13.5 °F 17% 30.08 in 10.0 mi North 16.1 mph 25.3 mph N/A   Clear
3:55 PM 59.5 °F - 14.5 °F 17% 30.07 in 10.0 mi North 16.1 mph 23.0 mph N/A   Clear
4:15 PM 59.9 °F - 14.9 °F 17% 30.06 in 10.0 mi North 12.7 mph 27.6 mph N/A   Clear
4:35 PM 59.2 °F - 12.7 °F 16% 30.07 in 10.0 mi North 18.4 mph 26.5 mph N/A   Clear
4:55 PM 59.0 °F - 15.4 °F 18% 30.06 in 10.0 mi North 16.1 mph 24.2 mph N/A   Clear
5:15 PM 60.3 °F - 13.5 °F 16% 30.06 in 10.0 mi NNW 16.1 mph 24.2 mph N/A   Clear
5:35 PM 59.4 °F - 14.2 °F 17% 30.06 in 10.0 mi NNW 11.5 mph - N/A   Clear
5:55 PM 58.8 °F - 11.8 °F 16% 30.07 in 10.0 mi NNW 13.8 mph 23.0 mph N/A   Clear
6:15 PM 58.8 °F - 13.8 °F 17% 30.08 in 10.0 mi NNW 16.1 mph 19.6 mph N/A   Clear
6:35 PM 57.7 °F - 12.6 °F 17% 30.08 in 10.0 mi NNW 15.0 mph 20.7 mph N/A   Clear
6:55 PM 56.5 °F - 15.1 °F 20% 30.08 in 10.0 mi North 12.7 mph - N/A   Clear
7:15 PM 54.5 °F - 15.4 °F 21% 30.08 in 10.0 mi North 9.2 mph - N/A   Clear
7:35 PM 51.1 °F - 17.4 °F 26% 30.09 in 10.0 mi North 6.9 mph - N/A   Clear
7:55 PM 48.9 °F - 17.2 °F 28% 30.08 in 10.0 mi North 6.9 mph - N/A   Clear
8:15 PM 46.4 °F 43.5 °F 16.5 °F 30% 30.08 in 10.0 mi North 5.8 mph - N/A   Clear
8:35 PM 45.1 °F 43.7 °F 16.7 °F 32% 30.09 in 10.0 mi NNE 3.5 mph - N/A   Clear
8:55 PM 46.0 °F - 17.1 °F 31% 30.09 in 10.0 mi Calm Calm - N/A   Clear
9:15 PM 40.3 °F - 16.7 °F 39% 30.10 in 10.0 mi Calm Calm - N/A   Clear
9:35 PM 39.0 °F - 18.0 °F 43% 30.10 in 10.0 mi Calm Calm - N/A   Clear
9:55 PM 40.6 °F - 18.1 °F 40% 30.10 in 10.0 mi Calm Calm - N/A   Clear
10:15 PM 39.4 °F - 18.3 °F 43% 30.10 in 10.0 mi Calm Calm - N/A   Clear
10:35 PM 40.6 °F - 17.4 °F 39% 30.09 in 10.0 mi Calm Calm - N/A   Clear
10:55 PM 40.1 °F - 17.8 °F 41% 30.08 in 10.0 mi Calm Calm - N/A   Clear
11:15 PM 37.9 °F 33.5 °F 20.8 °F 50% 30.08 in 10.0 mi East 5.8 mph - N/A   Clear
11:35 PM 39.2 °F 37.0 °F 19.0 °F 44% 30.08 in 10.0 mi ESE 3.5 mph - N/A   Clear
11:55 PM 38.1 °F - 19.2 °F 47% 30.08 in 10.0 mi Calm Calm - N/A   Clear